Location: *
(49.4547°N, 7.9131°E)
Time: 13:33:56
(UTC+00:00)

Okean 1 Rocket - Pass Details

Date: 22 September 2019
Orbit: 608 x 634 km, 82.5° (Epoch: 14 October)

Event Time Altitude Azimuth Distance (km) Brightness Sun altitude
Rises 18:29:45 0° 194° (SSW) 2,858 6.5 -10.9°
Reaches altitude 10° 18:31:58 10° 197° (SSW) 1,960 5.7 -11.2°
Maximum altitude 18:36:17 70° 281° (WNW) 658 3.4 -11.9°
Drops below altitude 10° 18:40:41 10° 6° (N) 1,989 5.8 -12.6°
Sets 18:42:56 0° 9° (N) 2,904 6.6 -13.0°
